sat.trackr.live / text

‹ back to catalog

CHINASAT 3B

NORAD 64062 · 2025-106A

PAYLOAD ACTIVE UNKNOWN

§ Identity

Operator
Country
PRC
Launch date
2025-05-20
Launch site
WSC
Launch vehicle
Mass (kg)
RCS (m²)

Purposes: comms

External: N2YO · Heavens-Above · Gunter

§ Orbital elements

Epoch: 2026-09-19T09:12:51.532992Z

Period
1,436.10 min
Inclination
0.0157°
Eccentricity
0.0002296
Mean motion
1.00271851 rev/d
Perigee alt
35,776.9 km
Apogee alt
35,796.3 km
Semi-major
42,164.7 km
B*
0.0000e+0
RAAN
346.5352°
Arg perigee
203.5397°
Mean anomaly
113.7515°
Rev number
500

§ Raw data

CHINASAT 3B1 64062U 25106A   26262.38392978 -.00000049  00000+0  00000+0 0  99912 64062   0.0157 346.5352 0002296 203.5397 113.7515  1.00271851  5002

JSON: /api/v1/satellites/64062 · /tle

For live sub-satellite position, see the globe view (requires WebGL).

§ Visibility from observer

Set your observer location to see the next 7 days of passes ≥ 10°. The values pass through the URL so the page stays shareable.

No JS? Fill the form by hand. The geolocation button needs JavaScript.